User: anonymous   Login
Location: Fort Wayne
(41.1310°N, 85.1290°W)
Time: 23:07:10
(UTC-05:00)
Language:

MetOp-A - Orbit

View from above orbital plane
View from above orbital plane
View from above satellite
View from above satellite

Ground track
Ground track

The orbit data is extracted from the following two-line orbital elements,

1 29499U 06044A   15031.69712535  .00000115  00000-0  72623-4 0  5789
2 29499 098.6939 093.2474 0001492 150.6738 319.6882 14.21478454429893
Epoch (UTC): 31 January 2015 16:43:51
Eccentricity: 0.0001492
inclination: 98.6939°
perigee height: 819 km
apogee height: 821 km
right ascension of ascending node: 93.2474°
argument of perigee: 150.6738°
revolutions per day: 14.21478454
mean anomaly at epoch: 319.6882°
orbit number at epoch: 42989

The dashed part of the orbit path shows where the satellite is in the earth's shadow,  

DLR